sat.trackr.live / text

‹ back to catalog

STARLINK-3707

NORAD 52133 · 2022-029AX

PAYLOAD ACTIVE UNKNOWN

§ Identity

Operator
Country
US
Launch date
2022-03-19
Launch site
AFETR
Launch vehicle
Mass (kg)
RCS (m²)

Purposes: comms

External: N2YO · Heavens-Above · Gunter

§ Orbital elements

Epoch: 2026-05-25T02:36:40.887648Z

Period
95.44 min
Inclination
53.2164°
Eccentricity
0.0001454
Mean motion
15.08841036 rev/d
Perigee alt
538.7 km
Apogee alt
540.7 km
Semi-major
6,917.9 km
B*
2.4935e-7
RAAN
86.0599°
Arg perigee
87.1558°
Mean anomaly
272.9600°
Rev number
23,247

§ Raw data

STARLINK-37071 52133U 22029AX  26145.10880657 -.00000284  00000+0  24935-6 0  99952 52133  53.2164  86.0599 0001454  87.1558 272.9600 15.08841036232472

JSON: /api/v1/satellites/52133 · /tle

For live sub-satellite position, see the globe view (requires WebGL).

§ Visibility from observer

Set your observer location to see the next 7 days of passes ≥ 10°. The values pass through the URL so the page stays shareable.

No JS? Fill the form by hand. The geolocation button needs JavaScript.